World > North America > United States > Pennsylvania

Clarks Mills, Pennsylvania Regional Weather

Lat: 41.39N, Lon: 80.18W
Wx Zone: PAZ007Web Search
Clarks Mills Weather Warning NWS WEATHER ALERT FOR THE CLARKS MILLS, PA AREA - HARD FROST ADVISORY Issued: 1137 PM EDT Sat May 8 2021 Clarks Mills Weather Warning  

If you are on your PC, you can easily pass this page to your phone by scanning the QR Code near the bottom with your camera.

Feedback


°F Click to change Clarks Mills hourly weather to Imperial units.Click to change Clarks Mills hourly weather to Metric units. °C
Clarks Mills Weather Map
UTC Time: 5/9/2021, 04:51
Your Time:

Clarks Mills, PA Regional Weather

Expires:202105090500;;820226
ASUS41 KCTP 090410
RWRCTP

REGIONAL WEATHER ROUNDUP
NATIONAL WEATHER SERVICE STATE COLLEGE PA
1200 AM EDT SUN MAY 09 2021

Note: "fair" indicates few or no clouds below 12,000 feet with no 
significant weather and/or obstructions to visibility.

* = STATION THAT DOES NOT REPORT PRECIPITATION /E.G. RAIN...SNOW...ETC/
    THUNDER OR FOG.


PAZ002>004-007>009-013>016-020>023-029>032-090500-
WESTERN PENNSYLVANIA
  
CITY           SKY/WX    TMP DP  RH WIND       PRES   REMARKS
ERIE           PTCLDY    40  33  76 S5        30.09F                  
MEADVILLE      PTCLDY    38  33  82 SW3       30.08F                  
FRANKLIN       PTCLDY    36  34  92 CALM      30.09S                  
NEW CASTLE     FAIR      35  33  92 CALM      30.10S                  
BEAVER COUNTY  PTCLDY    40  34  77 CALM      30.09F                  
BUTLER         PTCLDY    35  34  96 CALM      30.10S                  
PITTSBURGH INT MOCLDY    42  33  70 CALM      30.09F                  
PITTSBURGH     PTCLDY    42  34  73 CALM      30.09S                  
INDIANA*       CLEAR     34  34 100 CALM      30.13F                  
LATROBE        PTCLDY    37  36  93 CALM      30.10F                  
WASHINGTON CO* PTCLDY    38  35  89 CALM      30.12F                  
$$


SKY/WX - Weather  TMP - Temperature  DP - Dew Point  RH - Relative Humidity
WIND - Wind Direction/Speed PRES - Barometric Pressure VSB - Visibility
WCI - Wind Chill Index E13G22 Wind - East Wind 13 mph/Gusts of 22 mph